This demonstration page uses our WeatherBlox Daily Observations layout. Learn more.

Left ArrowRight Arrow

44.8408, -93.29828

Hourly Observations for April 20, 2019

Temp ( °F °C ) Dew Point ( °F °C ) Humidity (%) Winds ( mph kmh ) Pressure ( in mb ) Visibility ( mi km ) Precip ( " mm )
12:53 am 00:53 Clear 51 10.6 33 0.6 50 50 S 5 7 29.91 1013 10 16 0.00 0.00
1:53 am 01:53 Clear 47 8.3 33 0.6 59 59 Calm 29.91 1013 10 16 0.00 0.00
2:53 am 02:53 Clear 46 7.8 33 0.6 61 61 SSE 5 7 29.89 1012 10 16 0.00 0.00
3:53 am 03:53 Clear 45 7.2 33 0.6 63 63 ESE 3 6 29.90 1012 10 16 0.00 0.00
4:53 am 04:53 Clear 45 7.2 33 0.6 63 63 SE 3 6 29.89 1012 10 16 0.00 0.00
5:53 am 05:53 Mostly Clear 48 8.9 31 -0.6 52 52 S 5 7 29.88 1012 10 16 0.00 0.00
6:53 am 06:53 Mostly Sunny 47 8.3 31 -0.6 54 54 S 5 7 29.88 1012 10 16 0.00 0.00
7:53 am 07:53 Mostly Sunny 52 11.1 32 0 47 47 S 8 13 29.87 1011 10 16 0.00 0.00
8:53 am 08:53 Mostly Sunny 57 13.9 31 -0.6 37 37 S 10 17 29.85 1011 10 16 0.00 0.00
9:53 am 09:53 Mostly Sunny 59 15 31 -0.6 35 35 SSW 14 22 29.84 1011 10 16 0.00 0.00
10:53 am 10:53 Mostly Sunny 63 17.2 31 -0.6 30 30 SSW 12 19 29.82 1010 10 16 0.00 0.00
11:53 am 11:53 Mostly Sunny 66 18.9 33 0.6 29 29 S 14 22 29.80 1009 10 16 0.00 0.00
12:53 pm 12:53 Mostly Sunny 69 20.6 35 1.7 29 29 SSW 10 17 29.78 1008 10 16 0.00 0.00
1:53 pm 13:53 Mostly Sunny 72 22.2 37 2.8 28 28 S 15 24 29.75 1007 10 16 0.00 0.00
2:53 pm 14:53 Mostly Sunny 73 22.8 38 3.3 28 28 S 14 22 29.73 1007 10 16 0.00 0.00
3:53 pm 15:53 Mostly Sunny 75 23.9 39 3.9 27 27 S 15 24 29.70 1006 10 16 0.00 0.00
4:53 pm 16:53 Mostly Sunny 77 25 40 4.4 26 26 S 10 17 29.69 1005 10 16 0.00 0.00
5:53 pm 17:53 Mostly Sunny 77 25 41 5 28 28 SSW 13 20 29.67 1005 10 16 0.00 0.00
6:53 pm 18:53 Partly Cloudy 77 25 41 5 28 28 SSW 12 19 29.67 1005 10 16 0.00 0.00
7:53 pm 19:53 Partly Cloudy 75 23.9 41 5 29 29 S 6 9 29.67 1005 10 16 0.00 0.00
8:53 pm 20:53 Partly Cloudy 69 20.6 43 6.1 39 39 SSE 7 11 29.68 1005 10 16 0.00 0.00
9:53 pm 21:53 Partly Cloudy 65 18.3 43 6.1 45 45 SE 7 11 29.69 1006 10 16 0.00 0.00
10:53 pm 22:53 Partly Cloudy 65 18.3 43 6.1 45 45 SSE 7 11 29.69 1006 10 16 0.00 0.00
11:53 pm 23:53 Partly Cloudy 62 16.7 42 5.6 48 48 SE 5 7 29.70 1006 10 16 0.00 0.00

Powered by AerisWeather